• In Romania
  • List of Countries
  • For 7 days
  • Water Temperature
  • Satellite Maps
  • Weather Map
  • Weather Widgets
  • user-avatar
    Login

    Hourly Weather Pokrovka-Kazinka

    Today, 21 July, Saturday

    Time Temperature Precipitation Wind Pressure Humidity
    00:00 +19°C° 0 mm 2 mps 743 mmHg 91%
    01:00 +19°C° 0 mm 2 mps 743 mmHg 92%
    02:00 +20°C° 0 mm 1 mps 743 mmHg 92%
    03:00 +18°C° 0 mm 2 mps 742 mmHg 94%
    04:00 +19°C° 0 mm 2 mps 742 mmHg 93%
    05:00 +19°C° 0 mm 2 mps 742 mmHg 93%
    06:00 +19°C° 0 mm 2 mps 743 mmHg 92%
    07:00 +21°C° 0 mm 2 mps 742 mmHg 87%
    08:00 +23°C° 0 mm 2 mps 742 mmHg 82%
    09:00 +25°C° 0 mm 2 mps 742 mmHg 76%
    10:00 +26°C° 0.2 mm 2 mps 742 mmHg 72%
    11:00 +27°C° 0.2 mm 2 mps 742 mmHg 68%
    12:00 +28°C° 0.2 mm 2 mps 742 mmHg 64%
    13:00 +28°C° 0.3 mm 2 mps 742 mmHg 63%
    14:00 +28°C° 0.3 mm 3 mps 742 mmHg 62%
    15:00 +29°C° 0.3 mm 3 mps 742 mmHg 61%
    16:00 +28°C° 0.4 mm 3 mps 742 mmHg 65%
    17:00 +28°C° 0.4 mm 2 mps 742 mmHg 69%
    18:00 +28°C° 0.4 mm 2 mps 742 mmHg 73%
    19:00 +26°C° 0.5 mm 2 mps 742 mmHg 78%
    20:00 +24°C° 0.5 mm 2 mps 742 mmHg 84%
    21:00 +23°C° 0.5 mm 2 mps 742 mmHg 89%
    22:00 +21°C° 0 mm 3 mps 742 mmHg 91%
    23:00 +21°C° 0 mm 3 mps 742 mmHg 93%

    Tomorrow, 22 July, Sunday

    Time Temperature Precipitation Wind Pressure Humidity
    00:00 +21°C° 0 mm 3 mps 742 mmHg 95%
    01:00 +20°C° 0 mm 3 mps 742 mmHg 95%
    02:00 +20°C° 0 mm 3 mps 742 mmHg 96%
    03:00 +19°C° 0 mm 3 mps 743 mmHg 97%
    04:00 +20°C° 0 mm 3 mps 743 mmHg 96%
    05:00 +20°C° 0 mm 3 mps 743 mmHg 95%
    06:00 +20°C° 0 mm 4 mps 743 mmHg 94%
    07:00 +21°C° 0 mm 4 mps 743 mmHg 92%
    08:00 +22°C° 0 mm 4 mps 743 mmHg 89%
    09:00 +23°C° 0 mm 4 mps 743 mmHg 86%
    10:00 +25°C° 0.1 mm 4 mps 743 mmHg 83%
    11:00 +25°C° 0.1 mm 5 mps 743 mmHg 80%
    12:00 +26°C° 0.1 mm 5 mps 743 mmHg 77%
    13:00 +26°C° 0.8 mm 5 mps 743 mmHg 77%
    14:00 +26°C° 0.8 mm 6 mps 743 mmHg 77%
    15:00 +26°C° 0.8 mm 6 mps 743 mmHg 77%
    16:00 +24°C° 0.2 mm 6 mps 743 mmHg 80%
    17:00 +24°C° 0.2 mm 6 mps 743 mmHg 82%
    18:00 +23°C° 0.2 mm 5 mps 743 mmHg 85%
    19:00 +22°C° 0.1 mm 5 mps 744 mmHg 86%
    20:00 +22°C° 0.1 mm 5 mps 744 mmHg 87%
    21:00 +21°C° 0.1 mm 5 mps 744 mmHg 88%
    22:00 +21°C° 0.1 mm 5 mps 744 mmHg 89%
    23:00 +21°C° 0.1 mm 5 mps 744 mmHg 90%

    Day after tomorrow, 23 July, Monday

    Time Temperature Precipitation Wind Pressure Humidity
    00:00 +21°C° 0.1 mm 5 mps 744 mmHg 91%
    01:00 +20°C° 0.7 mm 5 mps 744 mmHg 92%
    02:00 +20°C° 0.7 mm 5 mps 744 mmHg 93%
    03:00 +19°C° 0.7 mm 5 mps 744 mmHg 95%
    04:00 +19°C° 0.1 mm 5 mps 744 mmHg 94%
    05:00 +19°C° 0.1 mm 5 mps 744 mmHg 94%
    06:00 +19°C° 0.1 mm 5 mps 744 mmHg 94%
    07:00 +20°C° 0 mm 5 mps 744 mmHg 91%
    08:00 +21°C° 0 mm 5 mps 744 mmHg 89%
    09:00 +22°C° 0 mm 5 mps 744 mmHg 86%
    10:00 +23°C° 1.1 mm 5 mps 744 mmHg 82%
    11:00 +26°C° 1.1 mm 5 mps 745 mmHg 78%
    12:00 +27°C° 1.1 mm 5 mps 745 mmHg 74%
    13:00 +27°C° 0.9 mm 5 mps 745 mmHg 74%
    14:00 +27°C° 0.9 mm 5 mps 745 mmHg 74%
    15:00 +27°C° 0.9 mm 5 mps 745 mmHg 74%
    16:00 +26°C° 0.7 mm 5 mps 745 mmHg 77%
    17:00 +26°C° 0.7 mm 5 mps 745 mmHg 80%
    18:00 +25°C° 0.7 mm 4 mps 745 mmHg 83%
    19:00 +23°C° 0.1 mm 4 mps 745 mmHg 84%
    20:00 +22°C° 0.1 mm 5 mps 746 mmHg 85%
    21:00 +22°C° 0.1 mm 5 mps 746 mmHg 86%
    22:00 +21°C° 0.5 mm 5 mps 746 mmHg 86%
    23:00 +20°C° 0.5 mm 5 mps 746 mmHg 86%

    24 July, Tuesday

    Time Temperature Precipitation Wind Pressure Humidity
    00:00 +20°C° 0.5 mm 5 mps 746 mmHg 86%
    01:00 +19°C° 0.5 mm 5 mps 746 mmHg 87%
    02:00 +19°C° 0.5 mm 5 mps 746 mmHg 88%
    03:00 +19°C° 0.5 mm 4 mps 747 mmHg 89%
    04:00 +19°C° 0.1 mm 4 mps 747 mmHg 88%
    05:00 +19°C° 0.1 mm 5 mps 747 mmHg 86%
    06:00 +19°C° 0.1 mm 5 mps 747 mmHg 85%
    07:00 +20°C° 0 mm 5 mps 747 mmHg 81%
    08:00 +21°C° 0 mm 5 mps 747 mmHg 76%
    09:00 +22°C° 0 mm 5 mps 748 mmHg 72%
    10:00 +23°C° 0 mm 6 mps 748 mmHg 69%
    11:00 +24°C° 0 mm 6 mps 748 mmHg 66%
    12:00 +26°C° 0 mm 6 mps 748 mmHg 63%
    13:00 +27°C° 0 mm 6 mps 748 mmHg 63%
    14:00 +27°C° 0 mm 6 mps 748 mmHg 63%
    15:00 +27°C° 0 mm 6 mps 748 mmHg 63%
    16:00 +27°C° 0.1 mm 5 mps 749 mmHg 65%
    17:00 +26°C° 0.1 mm 5 mps 749 mmHg 67%
    18:00 +26°C° 0.1 mm 4 mps 749 mmHg 70%
    19:00 +25°C° 0 mm 4 mps 749 mmHg 68%
    20:00 +23°C° 0 mm 5 mps 749 mmHg 65%
    21:00 +22°C° 0 mm 5 mps 750 mmHg 63%
    22:00 +22°C° 0 mm 4 mps 750 mmHg 63%
    23:00 +21°C° 0 mm 4 mps 750 mmHg 63%

    25 July, Wednesday

    Time Temperature Precipitation Wind Pressure Humidity
    00:00 +20°C° 0 mm 4 mps 750 mmHg 62%
    01:00 +20°C° 0 mm 4 mps 750 mmHg 65%
    02:00 +19°C° 0 mm 4 mps 750 mmHg 67%
    03:00 +18°C° 0 mm 3 mps 750 mmHg 70%
    04:00 +18°C° 0 mm 4 mps 750 mmHg 71%
    05:00 +19°C° 0 mm 4 mps 751 mmHg 72%
    06:00 +19°C° 0 mm 4 mps 751 mmHg 73%
    07:00 +19°C° 0 mm 4 mps 751 mmHg 72%
    08:00 +20°C° 0 mm 5 mps 751 mmHg 70%
    09:00 +21°C° 0 mm 5 mps 751 mmHg 68%
    10:00 +21°C° 0 mm 5 mps 752 mmHg 68%
    11:00 +22°C° 0 mm 5 mps 752 mmHg 68%
    12:00 +22°C° 0 mm 5 mps 752 mmHg 67%
    13:00 +23°C° 0 mm 5 mps 752 mmHg 64%
    14:00 +25°C° 0 mm 5 mps 752 mmHg 61%
    15:00 +27°C° 0 mm 5 mps 752 mmHg 58%
    16:00 +26°C° 0 mm 5 mps 752 mmHg 61%
    17:00 +26°C° 0 mm 4 mps 752 mmHg 64%
    18:00 +26°C° 0 mm 4 mps 752 mmHg 66%
    19:00 +23°C° 0 mm 4 mps 752 mmHg 67%
    20:00 +22°C° 0 mm 4 mps 752 mmHg 68%
    21:00 +21°C° 0 mm 4 mps 752 mmHg 69%
    22:00 +20°C° 0 mm 4 mps 752 mmHg 68%
    23:00 +20°C° 0 mm 4 mps 752 mmHg 67%

    26 July, Thursday

    Time Temperature Precipitation Wind Pressure Humidity
    00:00 +19°C° 0 mm 4 mps 752 mmHg 66%
    01:00 +19°C° 0 mm 4 mps 753 mmHg 65%
    02:00 +19°C° 0 mm 4 mps 753 mmHg 63%
    03:00 +19°C° 0 mm 4 mps 753 mmHg 61%
    04:00 +20°C° 0 mm 5 mps 753 mmHg 64%
    05:00 +20°C° 0 mm 5 mps 753 mmHg 68%
    06:00 +20°C° 0 mm 5 mps 753 mmHg 71%
    07:00 +21°C° 0 mm 6 mps 753 mmHg 70%
    08:00 +23°C° 0 mm 6 mps 753 mmHg 69%
    09:00 +24°C° 0 mm 7 mps 753 mmHg 68%
    10:00 +26°C° 0 mm 7 mps 753 mmHg 66%
    11:00 +26°C° 0 mm 6 mps 753 mmHg 65%
    12:00 +27°C° 0 mm 6 mps 753 mmHg 63%
    13:00 +27°C° 0.1 mm 6 mps 753 mmHg 64%
    14:00 +28°C° 0.1 mm 5 mps 753 mmHg 64%
    15:00 +28°C° 0.1 mm 5 mps 753 mmHg 65%
    16:00 +28°C° 0.1 mm 4 mps 753 mmHg 66%
    17:00 +28°C° 0.1 mm 4 mps 753 mmHg 67%
    18:00 +29°C° 0.1 mm 4 mps 753 mmHg 69%
    19:00 +27°C° 0 mm 4 mps 753 mmHg 72%
    20:00 +26°C° 0 mm 4 mps 753 mmHg 75%
    21:00 +23°C° 0 mm 4 mps 754 mmHg 79%
    22:00 +23°C° 0 mm 4 mps 754 mmHg 78%
    23:00 +23°C° 0 mm 5 mps 754 mmHg 78%
    Show more